Flag for U.S.A. Weather past 2 weeks in Spokane, Washington, U.S.A.

Now
67 °F

Overcast.


Feels Like: 67 °F
Forecast: 51 / 79 °F
Wind: 16 mph from Southwest

Location: Felts Field

Current Time: Jul 24, 2014 at 5:00:24 PM

Latest Report: Jul 24, 2014 at 3:53 PM


Visibility: 10 mi

Pressure: 30.09 "Hg

Humidity: 39%

Dew point: 41 °F

Location of SpokaneLocation

Historic Weather in Spokane — Graph

°F

Spokane temperature yesterday

Maximum temperature yesterday: 89 °F (at 2:53 PM)
Minimum temperature yesterday: 62 °F (at 5:53 AM)
Average temperature yesterday: 73 °F

Past Weeks' High & Low Weather Summary

 TemperatureHumidityPressure
High100 °F (Jul 16, 3:53 PM)90% (Jul 22, 7:53 AM)30.13 "Hg (Jul 22, 7:53 AM)
Low52 °F (Jul 24, 5:53 AM)9% (Jul 9, 5:53 PM)29.67 "Hg (Jul 17, 7:53 PM)
Average76 °F42%29.90 "Hg
* Reported Jul 9 3:53 PM — Jul 24 3:53 PM, Spokane, Weather by CustomWeather, © 2014

Note: Actual official high and low records may vary slightly from our data, if they occured in-between our weather recording intervals... More about our weather records

Advertising

Spokane weather history for previous 24 hours

 ConditionsComfort  
Time TempWeatherWind HumidityBarometerVisibility
3:53 PM
Jul 24
67 °FOvercast.16 mph39%30.09 "Hg10 mi
2:53 PM65 °FOvercast.18 mph40%30.10 "Hg10 mi
1:53 PM65 °FMostly cloudy.23 mph42%30.11 "Hg10 mi
12:53 PM67 °FMostly cloudy.18 mph39%30.10 "Hg10 mi
11:53 AM64 °FMore clouds than sun.17 mph45%30.11 "Hg10 mi
10:53 AM64 °FBroken clouds.18 mph47%30.11 "Hg10 mi
9:53 AM61 °FPartly sunny.16 mph52%30.11 "Hg10 mi
8:53 AM57 °FScattered clouds.16 mph62%30.12 "Hg10 mi
7:53 AM55 °FCloudy.9 mph67%30.13 "Hg10 mi
6:53 AM53 °FBroken clouds.7 mph72%30.12 "Hg10 mi
5:53 AM52 °FPassing clouds.8 mph75%30.10 "Hg10 mi
4:53 AM53 °FPassing clouds.10 mph72%30.09 "Hg10 mi
3:53 AM54 °FPassing clouds.12 mph74%30.05 "Hg10 mi
2:53 AM55 °FPassing clouds.12 mph72%30.03 "Hg10 mi
1:53 AM56 °FPassing clouds.13 mph72%30.03 "Hg10 mi
12:53 AM58 °FClear.15 mph65%30.02 "Hg10 mi
11:53 PM
Jul 23
62 °FPassing clouds.16 mph65%30.00 "Hg10 mi
10:53 PM63 °FPassing clouds.8 mph68%30.00 "Hg10 mi
9:53 PM64 °FPartly cloudy.10 mph65%30.00 "Hg10 mi
8:53 PM65 °FPartly sunny.13 mph59%29.98 "Hg10 mi
7:53 PM68 °FPartly sunny.17 mph49%29.96 "Hg10 mi
6:53 PM68 °FPassing clouds.6 mph59%29.94 "Hg10 mi
5:53 PM67 °FScattered clouds.21 mph68%29.95 "Hg10 mi
Weather by CustomWeather, © 2014

See weather overviewHow to use our weather pages